Flag for Germany Weather past 2 weeks in Kamp-Lintfort, North Rhine-Westphalia, Germany

Now
51 °F

Scattered clouds.


Feels Like: 48 °F
Forecast: 38 / 56 °F
Wind: 8 mph from Southwest

Location: Duesseldorf

Current Time: Apr 28, 2015 at 1:35:50 PM

Latest Report: Apr 28, 2015 at 1:00 PM


Visibility: 19 mi

Pressure: 29.99 "Hg

Humidity: 57%

Dew point: 36 °F

Location of Kamp-LintfortLocation

Historic Weather in Kamp-Lintfort — Graph

°F

Kamp-Lintfort temperature yesterday

Maximum temperature yesterday: 53 °F (at 12:00 AM)
Minimum temperature yesterday: 45 °F (at 9:00 AM)
Average temperature yesterday: 49 °F

Past Weeks' High & Low Weather Summary

 TemperatureHumidityPressure
High74 °F (Apr 15, 4:00 PM)98% (Apr 27, 3:00 AM)30.49 "Hg (Apr 27, 3:00 AM)
Low33 °F (Apr 28, 6:00 AM)29% (Apr 21, 4:00 PM)29.64 "Hg (Apr 27, 4:00 AM)
Average52 °F67%30.10 "Hg
* Reported Apr 13 12:00 Noon — Apr 28 12:00 Noon, Kamp-Lintfort, Weather by CustomWeather, © 2015

Note: Actual official high and low records may vary slightly from our data, if they occured in-between our weather recording intervals... More about our weather records

Advertising

Kamp-Lintfort weather history for previous 24 hours

 ConditionsComfort  
Time TempWeatherWind HumidityBarometerVisibility
12:00 PM
Tue, Apr 28
52 °FPassing clouds.5 mph58%29.99 "Hg16 mi
11:00 AM49 °FPassing clouds.6 mph59%29.99 "Hg16 mi
10:00 AM46 °FPassing clouds.3 mph66%29.98 "Hg16 mi
9:00 AM43 °FPassing clouds.102 mph75%29.96 "Hg14 mi
8:00 AM39 °FScattered clouds.1 mph86%29.95 "Hg16 mi
7:00 AM33 °FPartly sunny.1 mph97%29.93 "Hg19 mi
6:00 AM33 °FFog.1 mph96%29.91 "Hg25 mi
4:00 AM36 °FPassing clouds.2 mph88%29.89 "Hg31 mi
3:00 AM36 °FPassing clouds.1 mph89%29.88 "Hg31 mi
2:00 AM39 °FPassing clouds.2 mph80%29.88 "Hg31 mi
1:00 AM42 °FPassing clouds.3 mph71%29.86 "Hg34 mi
12:00 AM44 °FPassing clouds.5 mph66%29.85 "Hg34 mi
10:00 PM
Mon, Apr 27
46 °FOvercast.2 mph85%29.82 "Hg25 mi
9:00 PM47 °FOvercast.1 mph72%29.80 "Hg22 mi
8:00 PM50 °FOvercast.1 mph65%29.79 "Hg25 mi
7:00 PM51 °FOvercast.2 mph64%29.78 "Hg28 mi
6:00 PM51 °FOvercast.3 mph62%29.78 "Hg28 mi
4:00 PM50 °FOvercast.6 mph65%29.78 "Hg22 mi
3:00 PM49 °FOvercast.5 mph68%29.78 "Hg22 mi
2:00 PM50 °FOvercast.7 mph66%29.77 "Hg17 mi
1:00 PM49 °FOvercast.7 mph67%29.76 "Hg16 mi
Weather by CustomWeather, © 2015

See weather overviewHow to use our weather pages